WAAAYPDN

Guest
Details From WAAA - Ujung Pandang Hasanuddin
To YPDN - Darwin Intl
Flight Number -
Tags decoded
Created
Modified
Stats Distance 804 nm / 1,488 km
Max Altitude 0 ft / 0 m
Waypoints 2
Social Downloads 1
Likes 0
Share VATSIM

Download

Looking for another format? Having issues loading an existing format? Contact us
Advertisement - Login to hide

Notes

Requested: WAAA YPDN

Route

WAAA YPDN

ID Type Via Altitude Latitude Longitude Leg Dist Tot Dist Heading (true) Name
O WAAA APT - 0 ft / 0 m -5.06163˚ 119.55404˚ - 0 nm - Ujung Pandang Hasanuddin
O YPDN APT - 0 ft / 0 m -12.41506˚ 130.87528˚ 803 nm 803 nm 124° / 122° Darwin Intl

Altitude Profile

Advertisement - Login to hide

Weather


0- 5 10 15 20 25 30 35+ Temperature / ° C

Clouds and Precipitation
Forecast for 2018-05-25 00:00 UTC. Updated 6 hours ago

Ground ~20,000 ft ~40,000 ft Winds

WAAA

Details ICAO WAAA (UPG)
Name Ujung Pandang Hasanuddin
Region Indonesia
Timezone Asia/Makassar (UTC+8.0)
Stats Elevation 47 ft / 14 m (AMSL)
Location -5.061630° 119.554043°
Runways 1
Magnetic Variation 0.810° E

METAR

WAAA 250500Z 04004KT 010V080 5000 -RA BKN018 26/25 Q1008 NOSIG

Decode

TAF

Not found

Departure Runways

ID Width Length Bearing (true) Bearing (mag) Surface Threshold Offset Overrun Length
13 148 ft / 45 m 8,214 ft / 2,504 m 130.71° 129.90° Asphalt 0 ft / 0 m 200 ft / 61 m
31 148 ft / 45 m 8,214 ft / 2,504 m 310.71° 309.90° Asphalt 0 ft / 0 m 200 ft / 61 m

YPDN

Details ICAO YPDN (DRW)
Name Darwin Intl
Region Australia
Timezone Australia/Darwin (UTC+9.5)
Stats Elevation 102 ft / 31 m (AMSL)
Location -12.415064° 130.875278°
Runways 2
Magnetic Variation 2.631° E

METAR

YPDN 250500Z 08009KT CAVOK 33/17 Q1009 FM0530 33008KT CAVOK

Decode

TAF

TAF YPDN 242303Z 2500/2606 09012KT CAVOK FM250500 33008KT CAVOK FM251200 19005KT CAVOK FM260000 09011KT CAVOK FM260500 33008KT CAVOK

Decode

Destination Runways

ID Width Length Bearing (true) Bearing (mag) Surface Threshold Offset Overrun Length
11 197 ft / 60 m 10,997 ft / 3,352 m 109.02° 106.39° Asphalt 0 ft / 0 m 0 ft / 0 m
18 98 ft / 30 m 5,029 ft / 1,533 m 179.85° 177.22° Asphalt 0 ft / 0 m 0 ft / 0 m
29 197 ft / 60 m 10,997 ft / 3,352 m 289.02° 286.39° Asphalt 0 ft / 0 m 0 ft / 0 m
36 98 ft / 30 m 5,029 ft / 1,533 m 359.85° 357.22° Asphalt 0 ft / 0 m 0 ft / 0 m

Approach Navaids

Runway Type Ident Frequency Range Bearing (true) Bearing (mag) Slope Elevation
29 Localiser IDN 109.70 MHz 18 nm / 33 km 289.00° 286.37° - 103 ft / 31 m (AMSL)
29 Glidescope IDN 109.70 MHz 10 nm / 19 km 289.02° 286.39° 3.00° 103 ft / 31 m (AMSL)

Popular Alternatives